Theta_e
320 321 322 323 325 325 325 326 325 324 323 322 322 321 319 320 322 322 320 319 319 319 319 319 319 322 323 323 323 323 322 321 319 318 319 320 320 321 322 322 323 324 324 324 322 323 324 328 332 333 339 342 342 342 341 343 345 341 339 331 328 329 330 331 334 334 334 338 342 344 345 346 347 350 351 349 349 352 355 355 355 354 353 352 352 350 349 348
321 321 321 322 324 325 325 325 325 325 323 322 322 322 321 322 323 322 321 320 318 319 320 320 321 322 323 323 323 323 322 321 319 318 319 320 320 320 322 323 322 323 324 323 322 326 329 332 334 335 340 342 339 338 337 342 343 338 334 331 329 331 334 335 336 337 338 339 342 344 343 345 347 348 350 349 349 352 355 356 356 355 355 353 351 350 349 348
322 322 322 322 322 324 324 325 326 325 323 322 323 322 322 323 323 324 323 320 318 319 320 321 322 322 323 324 324 323 322 320 320 320 319 320 320 320 322 323 320 323 325 323 324 329 333 333 334 336 340 339 335 334 333 338 340 335 333 331 330 333 335 338 339 340 341 340 343 344 343 345 346 347 346 346 348 349 352 355 356 354 354 352 351 350 349 349
323 323 322 322 322 323 323 325 325 325 324 323 323 323 323 323 323 324 324 322 319 318 319 321 322 323 324 324 324 324 321 321 321 321 320 320 320 320 322 323 322 324 324 323 324 326 329 333 335 336 337 334 332 331 332 335 336 332 332 331 333 336 337 341 342 342 342 341 343 343 344 346 345 345 345 345 345 345 350 354 355 354 353 351 351 350 350 350
324 323 323 323 322 323 323 324 325 325 324 323 323 324 324 323 324 324 326 324 319 318 320 321 322 323 324 323 324 323 320 319 322 320 319 320 320 320 321 322 324 324 323 323 323 324 330 335 335 334 332 332 330 330 331 333 332 331 333 334 336 337 339 343 344 343 342 341 341 342 343 344 346 346 346 346 344 346 351 354 354 354 352 352 351 351 351 351
324 324 323 323 323 322 322 323 324 325 324 323 323 324 324 324 324 325 326 323 319 318 319 320 321 321 322 322 323 322 320 320 321 322 321 320 320 320 320 321 324 324 323 323 324 327 333 336 334 331 331 330 330 330 331 330 330 331 334 337 339 339 342 343 343 343 342 340 341 342 342 343 346 347 348 350 350 351 354 355 355 354 352 352 352 352 352 353
324 323 323 323 323 322 322 322 324 325 324 323 324 325 324 324 325 323 323 322 318 318 318 318 319 319 320 320 321 321 322 322 322 325 324 320 319 320 320 320 322 323 322 324 325 330 333 333 334 331 329 329 329 330 330 331 329 331 336 340 341 342 342 343 343 342 341 341 342 342 343 344 346 347 350 352 354 354 354 355 355 354 353 352 352 353 352 353
322 322 322 322 323 322 322 322 323 325 324 323 324 325 325 325 325 320 319 320 317 317 316 316 317 317 318 318 320 322 322 322 323 326 326 322 320 319 320 320 322 322 323 324 326 330 332 333 331 329 329 329 329 329 329 330 331 334 338 341 344 343 344 344 344 342 340 341 342 343 345 346 348 348 351 353 354 355 355 355 354 353 353 353 353 352 353 352
320 321 321 321 322 322 322 322 323 324 324 324 324 325 326 326 325 320 317 318 317 316 315 314 314 316 317 318 320 323 322 322 322 324 324 323 322 320 320 320 321 322 324 325 327 330 331 332 330 329 330 329 328 329 330 329 332 337 339 342 344 343 343 344 342 342 341 341 342 343 345 347 348 348 351 353 354 354 355 354 354 354 353 353 352 353 354 353
319 319 319 319 320 322 322 322 323 324 324 324 324 325 326 326 325 320 317 317 316 316 315 314 314 314 314 316 320 323 323 322 321 322 324 325 322 320 320 321 322 323 323 324 329 331 331 330 329 328 329 328 328 329 329 331 335 340 342 342 345 344 344 344 342 342 342 342 342 342 342 345 345 344 347 351 353 354 355 355 354 354 354 353 352 353 354 353
318 319 318 318 319 320 321 322 322 324 325 324 324 325 327 326 325 321 316 318 316 316 318 314 313 314 313 315 321 323 323 321 322 324 326 325 322 321 321 321 322 323 323 326 330 331 330 330 328 329 329 328 328 329 332 336 339 343 344 344 345 345 345 344 343 343 342 342 342 343 341 343 342 341 348 351 352 352 353 355 355 354 355 354 353 354 355 354
317 318 318 317 317 318 320 322 321 323 324 324 324 326 327 325 324 323 317 318 318 318 322 318 314 313 313 317 321 324 324 323 324 325 324 324 322 322 321 321 321 323 325 326 330 330 328 329 328 328 329 328 330 329 336 339 341 342 342 343 344 344 344 342 343 343 343 343 343 343 339 339 342 343 349 351 351 350 350 353 355 355 355 355 355 355 356 356
316 317 318 317 317 317 319 321 321 323 324 324 325 326 327 325 325 324 318 319 319 319 321 321 320 314 316 322 321 324 327 326 325 324 323 322 321 322 321 321 321 322 325 328 331 328 327 328 328 328 328 328 330 330 337 341 340 340 339 339 341 340 341 341 343 344 344 345 347 343 334 335 344 347 350 351 351 350 348 350 352 353 356 356 356 356 357 357
315 317 318 317 317 317 317 320 321 322 323 324 325 326 327 324 324 325 320 318 319 320 319 322 326 321 322 327 323 325 330 325 324 324 323 322 321 321 320 321 321 323 327 330 330 327 326 327 327 328 327 328 332 332 337 341 338 338 337 337 338 333 335 342 342 343 343 344 349 343 331 335 345 348 350 351 350 349 347 348 349 351 354 356 356 356 356 357
314 316 317 317 317 316 316 318 320 322 323 325 325 326 326 325 324 325 323 319 319 321 321 325 328 327 329 330 325 328 330 326 324 324 323 323 323 322 321 321 322 324 328 329 328 326 326 327 327 328 328 329 332 333 336 336 336 336 331 329 333 331 333 342 343 343 342 341 347 342 331 336 346 348 350 350 350 348 346 346 348 349 351 353 355 355 355 356
314 315 316 317 316 316 317 318 320 321 323 325 326 325 326 325 324 323 323 322 320 320 322 325 326 326 332 330 327 329 329 328 326 322 323 325 326 323 321 323 324 327 329 328 327 326 326 327 328 328 329 330 331 333 333 331 331 334 330 325 329 330 332 339 341 344 343 341 343 340 334 339 346 349 349 348 350 348 345 344 346 347 349 351 352 353 354 355
312 313 315 317 317 316 317 317 319 321 323 324 326 326 326 325 323 322 324 324 322 321 321 324 323 326 331 328 326 329 330 329 326 323 324 325 328 326 324 326 328 329 330 328 327 327 327 327 327 327 329 330 330 332 327 322 324 329 330 327 328 331 330 333 337 342 344 342 341 337 338 341 344 350 349 348 349 348 346 345 345 346 348 350 351 352 353 354
312 313 315 316 316 316 316 317 319 320 322 324 326 326 326 325 324 323 325 325 324 324 324 325 325 327 327 325 326 329 330 328 324 325 324 324 327 327 326 329 330 330 330 329 328 328 328 328 328 328 328 328 329 329 322 320 323 324 326 325 327 330 330 331 335 341 342 341 340 339 341 342 344 349 350 348 347 348 348 345 345 346 347 350 351 351 351 352
311 311 313 316 317 316 316 317 318 319 321 324 326 326 326 327 326 325 325 325 326 329 330 329 329 328 324 325 327 327 328 327 324 326 326 326 328 328 329 329 330 330 329 329 328 328 328 328 328 326 326 327 328 328 326 326 329 328 327 327 326 326 329 332 336 339 342 340 340 339 340 344 346 347 350 349 347 348 348 347 347 346 347 349 349 350 351 351
310 311 312 314 316 316 316 317 319 319 320 324 326 327 329 329 329 329 328 327 328 329 329 329 330 328 326 326 327 326 328 328 325 327 328 328 329 329 329 329 329 329 328 329 328 329 329 327 327 326 326 328 327 329 329 329 330 330 329 328 327 327 327 333 338 340 342 338 339 341 341 344 346 345 350 350 348 348 349 350 349 348 347 347 348 350 350 351
310 310 311 313 316 316 315 317 318 318 319 323 326 328 330 329 328 329 329 329 329 327 327 328 328 328 327 328 328 327 327 327 327 327 329 330 330 329 329 329 328 327 329 330 328 328 327 325 326 328 328 328 328 328 329 329 329 329 328 326 326 326 328 334 339 340 342 338 338 345 344 344 347 346 349 351 349 347 346 349 350 349 348 348 349 350 351 353
309 310 310 311 315 315 314 317 318 318 320 323 325 328 330 328 327 327 327 329 329 328 327 328 327 327 328 327 327 327 327 327 326 327 329 330 330 328 328 328 326 327 328 329 329 327 326 326 327 329 329 329 328 329 328 329 329 328 328 325 323 326 330 335 339 342 341 337 339 346 344 345 350 347 349 352 350 346 345 347 349 351 350 350 351 350 352 356
309 310 309 310 314 315 314 316 318 319 321 322 323 327 329 327 327 327 327 329 330 329 327 328 328 328 327 327 327 326 327 327 325 326 328 329 330 329 328 328 326 328 327 327 328 324 322 325 329 329 329 329 328 328 329 329 329 328 327 324 322 327 328 328 335 341 341 337 340 347 344 347 353 352 353 352 349 351 351 350 351 353 354 354 352 352 355 357
308 309 309 310 312 315 314 315 319 319 321 322 322 325 327 326 327 328 329 329 330 330 329 328 328 329 328 327 326 327 327 327 325 326 328 329 329 328 327 327 327 327 327 326 327 325 323 326 329 329 328 329 327 329 329 327 326 327 328 325 323 328 328 326 335 341 340 340 344 345 339 342 352 352 351 352 352 355 355 353 354 354 355 356 355 356 357 357
308 309 309 309 311 314 313 316 320 319 320 321 322 325 326 326 328 328 330 330 329 329 328 327 327 328 328 327 326 327 327 326 326 327 328 328 328 327 328 327 326 326 326 326 326 326 327 327 329 328 327 329 328 328 328 327 325 324 327 328 326 329 329 330 339 339 333 332 340 341 329 330 344 349 347 349 352 353 353 354 354 354 355 356 357 357 358 357
307 308 309 309 311 313 314 318 320 317 318 320 322 326 326 326 328 328 330 329 325 326 328 326 327 327 327 327 327 327 325 325 326 327 327 328 327 326 327 327 327 326 326 327 327 327 327 327 328 328 327 328 328 328 328 328 324 321 326 329 329 330 329 333 338 331 323 325 338 341 327 324 334 344 348 349 350 351 352 354 353 355 356 356 355 354 356 357
307 308 308 308 309 312 314 317 316 314 318 321 323 326 325 326 328 329 331 325 320 325 327 325 326 327 326 327 328 326 324 324 326 327 328 328 327 327 326 325 326 326 328 327 325 326 328 327 326 327 328 328 327 326 329 329 323 322 329 330 329 330 331 336 336 327 324 330 339 342 334 324 324 335 347 350 351 351 351 354 353 354 356 355 354 353 355 357
307 308 308 308 308 310 311 313 313 313 316 320 323 325 324 326 329 331 330 321 320 325 327 324 325 325 326 328 327 327 325 325 326 326 328 327 327 327 325 326 326 326 329 327 321 324 329 327 326 328 327 327 328 328 329 329 325 327 334 332 331 333 334 336 332 328 330 332 329 334 337 327 322 333 348 349 350 352 352 353 353 353 354 355 353 352 355 357
307 308 308 308 309 309 311 312 313 314 315 320 324 324 323 326 331 333 327 321 323 325 325 325 324 324 326 328 327 327 327 326 326 327 328 328 327 326 326 327 328 327 328 326 325 326 328 328 328 328 327 327 328 329 328 328 328 331 336 336 336 336 335 335 332 329 330 327 323 327 332 325 320 329 342 345 347 350 351 352 352 353 354 355 355 353 354 356
308 308 308 308 309 310 311 312 313 315 317 320 321 322 324 329 332 327 320 321 325 325 323 324 324 325 327 327 326 326 326 326 327 327 327 328 327 326 326 328 328 327 327 327 328 326 327 328 331 328 329 329 328 328 327 328 331 334 336 335 335 336 336 335 333 329 327 323 322 324 329 325 320 323 333 343 346 346 347 349 350 353 354 355 355 354 354 356
308 308 308 308 309 310 311 313 315 316 318 317 318 322 327 333 332 322 319 323 324 323 323 323 324 325 326 326 326 326 326 326 327 327 327 328 327 326 326 326 327 326 326 325 326 327 327 328 329 328 328 328 328 327 327 328 332 335 334 333 329 330 331 329 328 328 323 320 323 326 329 326 320 322 329 340 344 343 341 343 347 351 353 356 356 354 354 356
308 309 308 308 309 310 311 312 313 315 315 314 317 326 330 331 327 319 321 324 321 322 324 323 324 326 325 326 326 326 326 325 326 327 327 327 327 326 326 326 326 323 319 321 323 325 327 328 329 327 327 328 328 327 327 328 331 332 332 328 323 321 322 321 321 322 320 321 325 328 328 326 323 327 332 336 339 343 342 341 344 349 353 356 357 354 353 354
308 309 309 309 309 310 311 312 312 313 312 312 320 330 331 328 324 321 322 322 322 324 325 324 324 325 326 325 325 325 325 325 326 326 327 327 327 327 326 328 328 324 320 321 321 319 323 327 328 327 326 329 328 326 323 324 327 327 326 323 319 319 319 318 319 319 319 320 325 329 328 323 322 329 336 337 339 343 345 344 343 347 351 355 357 354 353 354
309 309 309 310 310 311 312 312 313 313 311 314 323 329 328 325 325 323 323 324 326 327 326 324 324 325 326 325 325 325 324 324 326 327 326 326 326 326 326 327 327 328 327 324 321 319 318 321 326 327 327 328 328 328 325 326 327 327 328 326 321 319 318 318 318 318 318 320 324 328 326 320 320 332 342 343 343 343 344 346 347 349 350 353 357 355 353 353
309 309 309 311 310 312 312 313 313 312 311 318 327 327 325 323 324 323 324 326 329 329 328 326 325 323 323 324 325 326 324 324 326 326 327 326 325 326 327 326 327 328 328 322 321 322 318 319 326 329 328 328 328 329 329 328 325 327 330 326 322 322 322 319 319 320 319 318 322 324 323 323 328 338 344 342 343 344 344 346 348 350 351 352 356 355 353 352
309 310 310 311 312 314 314 313 313 312 312 321 327 325 324 326 326 326 327 329 328 329 329 327 325 322 321 323 325 325 325 325 325 325 326 326 326 327 327 327 327 327 327 324 323 323 318 320 328 329 328 329 328 330 330 328 325 326 325 323 325 329 327 321 319 322 320 316 320 323 322 324 329 333 338 341 342 343 344 345 346 348 350 352 355 356 353 353
310 310 310 311 313 317 317 315 313 312 314 323 326 324 326 328 328 328 328 329 328 328 328 324 323 321 319 319 322 325 325 324 325 324 323 324 325 327 328 328 328 327 328 327 325 325 322 320 328 329 327 329 329 329 330 329 329 326 323 323 328 329 328 324 320 320 320 317 319 322 320 321 322 326 337 342 338 337 342 345 345 345 350 353 355 355 355 353
309 309 312 314 316 319 320 317 314 312 316 325 327 327 329 328 328 329 329 329 328 328 329 325 324 324 321 320 321 324 325 322 323 323 322 324 324 326 328 327 327 328 329 328 326 328 325 320 324 330 328 327 329 327 326 327 330 327 326 328 327 321 321 323 321 319 319 318 319 320 320 319 319 323 332 336 334 333 340 347 346 344 348 352 354 355 356 354
308 311 317 320 319 321 323 321 316 314 318 326 327 328 330 328 329 329 329 330 329 328 328 327 326 326 324 323 322 325 325 322 323 323 321 323 323 325 328 327 327 327 328 329 327 327 327 320 320 328 329 327 327 326 323 323 327 328 328 329 327 323 323 324 322 320 319 317 318 319 319 319 322 327 330 331 333 334 340 348 347 344 348 352 354 355 356 355
309 314 320 322 320 320 321 321 317 317 321 325 327 328 329 328 328 329 328 329 328 327 328 329 328 326 326 326 325 325 326 324 325 323 323 324 324 325 326 326 327 327 327 329 327 328 330 323 319 325 328 325 324 325 325 325 326 325 324 324 325 325 325 325 324 322 320 318 317 318 318 318 326 333 332 331 334 335 340 347 348 346 347 351 354 355 355 355
312 316 319 321 319 316 319 321 319 319 323 325 328 329 329 328 328 328 328 328 327 327 328 328 328 328 327 327 325 326 326 325 325 325 324 326 324 324 326 327 327 327 326 327 327 327 328 325 320 321 323 321 323 329 330 329 329 326 326 325 324 325 323 320 321 322 322 319 318 319 317 319 331 338 334 334 336 336 341 344 346 348 348 350 353 354 355 355
316 318 318 321 320 320 324 324 320 323 326 327 328 327 328 328 327 327 328 327 326 326 327 328 328 329 329 328 327 327 327 325 325 326 324 325 325 326 327 327 327 328 327 327 327 328 330 329 322 320 323 325 327 331 330 329 331 329 329 328 329 328 323 319 319 321 322 320 321 321 318 321 336 345 340 341 343 343 345 348 347 348 348 351 353 353 355 355
321 319 318 318 320 325 328 326 325 328 328 327 328 327 327 328 327 327 326 326 326 325 326 327 328 330 329 328 329 327 327 326 325 325 327 326 327 327 327 328 327 328 327 327 327 330 332 329 322 320 326 329 328 331 330 329 330 328 328 330 329 328 326 325 325 325 322 321 321 320 318 322 337 347 345 346 347 345 345 347 349 349 348 351 353 353 355 356
321 319 319 317 319 324 327 327 327 328 326 327 328 326 326 326 325 325 325 324 325 324 325 327 328 329 328 327 329 328 326 325 324 327 327 326 327 328 328 327 327 327 326 328 330 328 326 327 323 320 322 324 324 326 325 326 328 327 329 330 328 329 330 329 330 329 322 320 322 320 317 322 336 343 344 345 344 342 341 345 347 349 350 351 353 354 355 356
323 322 319 319 321 323 326 327 327 326 326 327 327 325 325 324 323 324 324 323 325 324 324 326 327 328 327 327 327 328 328 326 326 327 328 328 329 329 328 328 327 327 328 330 333 329 326 329 328 320 318 318 319 320 321 325 327 327 329 330 329 330 329 327 327 324 320 323 325 321 319 324 336 341 340 341 341 340 342 346 346 347 350 352 354 354 356 357
325 324 321 321 324 325 325 327 326 326 327 326 326 325 324 323 324 325 324 324 325 325 325 326 328 327 327 327 327 328 328 327 327 330 330 329 330 329 332 332 328 331 335 331 330 331 332 334 331 326 322 320 321 324 328 329 326 324 326 329 329 330 330 329 325 321 323 326 325 324 325 326 331 335 335 336 337 335 337 343 346 348 350 351 352 353 355 356
324 325 325 324 325 325 326 327 327 326 326 326 326 326 324 324 325 325 325 325 326 326 326 326 327 328 327 328 328 327 328 329 329 330 330 330 331 331 335 336 332 337 340 332 328 333 333 330 330 331 329 327 329 332 333 331 327 325 326 328 329 329 330 329 324 325 331 325 321 330 336 328 328 334 336 335 336 336 338 340 342 346 349 349 351 352 353 353
323 324 325 323 325 326 325 326 327 326 325 325 325 325 325 325 325 326 326 326 326 327 327 327 327 328 329 329 330 329 329 329 329 331 332 333 333 332 334 336 337 341 339 331 329 335 331 326 329 330 329 331 334 334 332 330 329 329 328 327 329 329 330 328 326 333 337 325 324 336 340 332 333 335 334 334 334 335 337 339 339 343 346 349 351 351 351 351
321 323 322 321 325 328 326 325 326 326 325 326 327 325 326 325 325 326 326 326 328 327 327 329 329 329 329 330 331 333 333 330 329 333 337 335 334 333 333 333 335 339 338 330 332 336 332 330 334 331 328 330 333 333 332 330 329 329 329 329 330 329 329 329 329 335 337 330 332 339 337 336 336 335 335 334 332 337 339 339 338 339 341 346 350 351 351 350
319 320 319 321 325 326 326 326 325 326 325 326 328 325 325 326 325 325 325 326 329 329 328 329 329 329 329 330 331 333 334 332 333 336 337 336 335 335 334 332 332 335 333 331 333 335 331 332 337 332 327 328 331 332 332 331 330 328 328 330 331 329 329 330 330 335 334 333 335 336 334 334 335 336 336 332 332 340 341 338 339 339 339 344 347 348 349 348
315 315 315 321 325 323 324 326 325 326 325 325 326 325 324 326 324 324 326 325 328 327 326 327 328 329 330 331 331 331 329 329 331 332 331 333 334 334 334 333 332 332 332 332 333 334 332 333 337 331 324 324 329 331 330 331 330 326 327 330 331 329 329 329 332 334 333 333 334 332 329 331 333 336 336 332 333 337 338 339 341 342 341 343 345 346 347 347
311 313 314 319 324 320 321 324 324 326 325 323 324 324 323 324 323 324 327 326 326 326 326 327 328 329 331 332 331 328 326 327 328 328 328 329 330 331 331 332 332 332 332 333 333 333 333 333 333 328 322 322 328 330 328 328 325 323 326 331 331 330 330 331 333 335 334 333 330 328 328 331 333 334 333 333 332 333 338 342 341 342 345 344 343 345 346 346
Wind_Speed
18 18 18 18 18 18 18 19 20 22 22 23 23 23 21 19 19 18 17 16 15 14 13 12 12 13 12 12 12 12 12 14 14 16 19 17 14 12 10 13 14 11 9 9 8 7 6 5 3 1 0 3 4 3 3 4 4 4 4 2 4 5 7 6 5 5 7 10 12 13 11 10 11 11 12 12 13 12 10 10 11 12 12 16 23 28 26 24
18 18 18 18 18 18 18 19 20 21 22 23 23 23 22 20 19 18 18 17 15 13 12 12 12 12 11 11 10 10 11 12 14 18 20 16 13 13 12 14 15 11 10 9 7 8 6 6 4 2 3 5 4 3 3 3 4 4 2 3 4 6 8 6 7 7 7 12 13 12 10 10 11 10 9 8 10 10 10 12 15 18 19 22 26 27 26 25
18 18 18 18 19 19 19 19 20 21 22 23 23 22 22 21 20 19 18 17 15 13 11 11 11 10 10 9 9 9 9 10 13 19 18 16 15 15 15 15 15 12 11 9 7 8 6 6 6 4 5 6 4 4 3 4 4 4 3 3 7 8 9 7 7 7 9 15 14 12 11 11 9 7 5 6 9 9 9 11 15 20 22 24 25 25 26 24
18 18 18 19 19 19 19 19 20 21 22 23 22 21 21 22 21 20 19 17 15 12 10 10 9 9 9 8 7 6 6 8 11 15 15 17 17 15 17 15 14 13 12 9 7 8 7 6 7 5 7 6 4 5 4 4 3 1 3 5 9 7 8 8 8 10 12 14 13 13 12 11 9 6 5 5 6 7 9 10 14 21 26 26 25 24 23 23
19 19 19 19 19 20 20 19 20 20 21 22 21 21 22 22 23 21 19 17 14 10 8 9 9 8 8 7 7 5 5 4 6 10 13 18 19 17 18 16 14 14 13 10 7 8 7 8 9 8 8 5 6 6 5 4 3 1 5 9 9 6 8 9 9 11 13 14 13 12 11 10 11 10 8 6 6 7 8 11 16 22 26 26 25 23 22 22
19 19 19 19 19 20 20 19 19 20 21 21 20 20 21 22 23 21 18 15 12 8 7 8 8 8 8 7 7 8 9 2 3 6 11 18 20 18 18 16 15 14 12 9 7 7 8 9 10 9 8 5 6 6 7 6 5 2 7 8 7 8 10 10 11 12 13 15 13 11 11 12 12 12 13 14 13 12 13 16 20 22 23 24 23 22 21 21
19 19 19 19 19 20 20 19 19 19 20 20 19 19 21 22 22 19 16 12 9 7 7 8 8 8 8 8 8 10 12 6 2 4 9 16 21 20 19 17 16 14 11 9 8 9 9 11 9 8 7 6 6 5 8 7 4 3 7 7 9 11 13 12 12 12 14 16 14 12 12 12 12 12 13 17 17 16 18 20 22 22 21 21 20 19 19 19
19 19 20 19 19 20 20 20 19 19 19 19 19 19 21 22 21 18 13 8 6 7 8 9 10 10 9 9 8 8 12 9 5 5 8 14 19 20 19 18 17 14 12 10 9 9 10 10 8 8 7 5 6 7 10 8 4 6 9 9 10 13 14 14 13 14 17 17 15 13 13 14 15 14 15 16 17 17 19 20 21 21 20 19 18 17 17 16
20 20 20 20 20 19 19 20 19 19 19 19 18 19 21 22 21 16 9 6 5 7 8 9 10 11 12 11 8 7 10 11 7 5 7 13 18 20 19 18 17 15 12 10 9 8 9 9 7 6 4 5 5 9 12 8 5 8 11 12 12 14 15 14 14 15 16 16 14 14 15 17 17 15 14 14 16 18 19 20 20 19 19 17 17 16 15 15
20 20 20 20 20 19 19 19 19 19 19 18 18 18 21 22 19 13 7 5 5 6 6 6 6 9 11 11 9 6 7 12 9 4 7 13 16 19 19 17 17 15 11 10 9 8 7 7 7 4 4 6 5 8 9 6 8 11 14 15 14 15 15 13 14 16 16 15 14 14 15 15 12 9 9 12 15 17 19 19 18 18 17 17 16 16 14 14
20 19 20 20 20 20 19 19 19 19 19 18 17 17 21 22 17 11 6 5 5 5 6 4 2 7 10 13 11 5 6 10 8 6 9 13 16 19 20 18 17 14 11 11 10 7 5 6 8 5 4 7 7 8 6 9 16 15 15 16 14 15 14 13 14 15 15 13 14 15 15 13 9 8 10 13 14 16 18 18 17 17 16 16 15 14 14 14
19 19 20 20 20 20 19 19 19 19 19 17 16 17 20 21 16 9 6 5 4 4 6 6 4 5 9 12 11 4 7 9 7 8 10 14 16 18 20 18 16 13 11 12 10 9 8 8 8 4 3 8 8 8 9 13 18 17 15 13 12 13 12 12 13 13 12 12 14 13 12 11 10 12 14 14 13 15 17 16 16 16 15 15 14 13 13 13
19 19 20 20 19 19 19 19 18 19 18 17 16 16 19 21 16 8 5 4 3 3 3 5 6 6 7 9 10 5 7 8 8 9 11 16 17 16 18 18 16 14 12 11 10 11 10 9 6 3 4 5 5 9 10 12 15 15 13 10 10 9 9 11 11 11 12 13 11 6 4 9 9 13 14 13 13 14 15 15 15 15 15 14 13 12 12 12
19 19 19 20 19 19 19 19 18 18 18 17 15 15 18 20 16 9 5 4 2 2 1 2 4 4 5 5 7 6 6 8 9 10 13 17 19 18 18 17 17 17 14 11 10 11 10 9 7 6 4 3 9 13 12 11 11 11 9 8 8 6 8 11 11 11 11 11 7 5 1 7 9 13 14 13 13 13 14 14 14 14 14 14 13 12 12 12
19 19 19 19 19 19 18 19 18 18 17 16 14 15 18 19 16 9 6 5 3 2 1 1 2 1 5 5 6 5 6 8 9 11 14 17 19 20 21 21 19 19 16 13 11 11 11 9 7 8 6 8 13 13 9 8 8 8 8 8 6 4 9 11 11 11 8 8 6 5 2 7 9 13 14 13 13 12 12 13 13 13 13 13 13 12 12 12
19 19 18 19 19 18 18 18 18 18 17 16 14 14 17 18 15 11 8 6 4 3 1 2 1 2 5 4 6 6 7 8 9 11 16 18 15 18 24 22 19 20 17 13 11 11 11 8 4 7 9 9 11 9 8 7 6 8 8 7 8 6 8 9 11 12 7 6 6 4 2 6 9 13 14 13 13 11 11 12 13 13 13 13 12 12 11 11
19 19 18 19 19 18 17 17 18 17 17 16 13 14 17 17 15 13 9 6 5 3 3 4 3 3 4 3 7 8 8 9 11 12 17 20 15 18 24 21 17 17 15 11 10 10 9 8 6 7 8 8 8 8 8 8 7 8 7 7 10 9 8 8 10 13 10 6 6 4 3 6 11 14 15 13 13 11 10 12 13 12 12 12 11 11 11 11
20 19 18 18 19 18 17 16 17 17 17 15 13 14 15 16 15 10 6 5 3 4 5 5 5 3 4 8 9 10 11 10 13 14 16 20 18 19 19 17 16 16 14 11 9 9 8 8 9 7 7 8 8 8 8 8 9 9 8 7 9 8 8 8 8 11 12 8 6 4 4 8 12 13 14 14 13 11 10 10 11 12 12 11 11 11 11 11
21 20 18 18 18 18 16 15 16 16 17 14 12 14 12 13 12 3 2 1 4 5 3 6 10 2 3 11 9 9 13 12 14 15 15 19 20 17 14 15 19 18 15 11 10 11 9 8 8 7 8 9 10 11 10 8 10 12 12 9 9 9 8 8 7 10 13 9 7 6 5 10 12 12 13 14 13 11 10 9 9 11 11 11 11 10 11 10
22 21 19 18 18 18 17 15 14 15 16 13 12 12 8 9 7 2 1 8 13 12 8 7 10 3 4 11 9 11 15 13 13 14 15 18 19 17 15 17 19 17 14 12 11 10 8 8 8 8 10 12 13 13 9 4 7 12 12 9 9 9 8 9 7 9 12 9 7 6 6 10 12 11 12 13 13 11 10 10 9 10 11 11 11 11 11 10
22 22 20 18 18 18 16 15 13 13 15 12 10 9 5 7 5 3 7 11 12 11 10 8 11 9 5 8 9 13 15 13 13 14 16 18 17 17 17 17 16 12 12 12 10 8 8 8 10 12 11 12 12 10 6 4 7 10 9 8 8 8 6 9 7 8 11 8 5 7 6 9 11 10 12 13 12 12 12 11 10 10 10 10 10 11 10 10
23 23 21 19 18 18 17 15 12 12 13 10 8 6 4 5 7 8 9 8 9 10 10 9 12 12 9 9 12 15 14 14 15 16 18 18 17 16 16 17 14 11 11 10 8 8 9 10 12 12 6 7 8 7 8 8 9 9 8 8 7 6 5 7 8 8 9 7 5 9 8 8 10 9 11 13 12 11 11 12 10 10 10 10 10 10 10 10
22 23 23 19 17 18 17 14 12 11 10 8 8 7 5 7 9 10 6 8 10 10 11 11 14 12 11 13 14 17 16 16 18 19 21 20 18 15 15 16 13 11 12 11 10 9 10 12 13 11 7 9 9 9 10 8 8 8 7 8 7 8 7 6 8 9 9 6 4 9 9 6 9 8 8 12 12 10 10 10 10 10 10 10 10 10 11 11
22 22 23 20 18 17 16 15 11 7 6 8 10 9 8 7 9 8 5 7 8 7 10 12 12 11 13 13 15 20 17 17 19 20 23 21 17 13 14 17 14 11 12 14 14 12 10 9 10 11 9 12 11 11 11 8 7 9 8 9 7 9 12 8 8 10 8 6 5 8 8 5 9 10 9 11 11 10 11 11 11 11 11 10 9 10 11 11
21 22 23 21 19 16 16 14 6 3 5 8 10 10 8 7 7 5 3 7 6 6 8 10 10 10 14 14 18 21 15 15 18 21 24 22 18 12 10 13 12 10 14 16 15 12 7 7 11 11 10 13 12 11 13 11 8 8 10 13 11 8 11 9 13 12 7 7 8 10 7 5 9 12 11 11 11 11 12 13 13 13 12 12 11 11 11 11
21 21 23 22 19 17 14 8 3 5 7 6 8 8 8 8 7 3 2 5 4 6 8 10 10 11 15 17 21 20 13 14 15 19 24 20 17 12 8 10 8 9 14 14 10 7 5 7 8 10 11 14 13 12 14 12 9 6 7 12 12 9 9 11 15 12 8 6 9 12 8 4 7 11 13 13 13 13 13 14 16 15 15 15 15 14 13 12
20 21 23 22 19 17 14 8 7 9 6 5 8 8 8 8 4 1 3 5 4 5 8 9 9 13 15 18 24 16 8 15 14 17 23 18 15 12 9 10 8 6 9 9 7 5 6 9 9 9 11 13 12 10 11 12 10 1 3 6 9 8 10 13 14 11 6 3 7 11 8 5 4 7 12 15 14 14 15 14 16 18 18 17 17 16 15 14
20 20 23 22 18 16 16 14 12 9 5 6 7 7 8 7 2 3 5 5 3 4 6 7 8 12 14 18 26 13 7 20 16 15 21 16 15 13 11 13 12 9 11 9 7 6 8 11 12 12 12 11 8 5 9 12 8 2 5 5 6 7 10 11 11 8 4 4 6 8 7 6 6 4 9 14 14 15 17 17 17 20 20 19 19 18 17 16
19 19 22 22 18 15 16 16 13 8 6 4 4 6 8 6 4 5 5 4 2 4 6 8 9 13 13 16 22 12 9 19 13 14 21 15 14 12 7 11 12 10 14 13 6 7 7 6 8 12 11 7 5 7 7 7 3 4 6 7 7 5 6 7 7 4 3 6 8 9 9 7 7 4 7 10 12 14 16 16 18 22 22 21 21 20 19 17
19 18 20 23 19 15 15 15 12 8 6 4 4 5 7 6 6 6 5 3 2 4 5 8 9 14 17 16 16 12 11 13 10 16 20 16 16 12 4 6 9 8 11 12 6 6 6 2 3 7 4 5 10 10 6 4 7 10 9 8 8 5 4 3 3 2 4 8 8 9 11 9 8 5 6 8 11 13 13 13 16 21 23 22 21 21 20 19
19 17 19 22 20 16 14 12 9 6 6 5 3 3 5 5 5 6 5 2 1 4 7 8 9 14 19 17 13 13 13 11 13 18 16 12 14 12 6 6 7 7 9 9 6 6 7 6 5 3 2 7 12 9 6 7 10 11 7 7 6 4 4 4 3 4 6 7 5 4 8 10 9 6 4 5 9 11 10 11 14 20 24 24 23 22 21 21
19 18 18 20 20 17 13 11 10 10 8 5 3 3 5 6 6 7 4 3 2 5 7 8 10 13 18 17 14 14 13 10 14 17 14 12 11 10 10 9 8 9 8 9 9 8 9 7 7 7 5 8 10 8 6 6 9 8 6 8 6 4 5 6 5 6 7 4 3 2 6 9 8 9 9 7 7 9 8 8 12 17 24 25 25 24 22 22
19 19 19 18 19 17 14 12 13 14 11 7 6 6 5 6 7 6 5 4 2 2 2 5 10 13 16 16 13 14 13 11 14 16 15 14 11 12 13 11 11 10 8 10 11 9 8 6 7 9 6 9 11 8 7 6 7 9 8 8 7 5 6 7 6 6 7 4 4 4 4 6 8 8 9 8 6 7 8 9 10 13 20 24 25 25 23 22
18 19 19 18 16 15 13 13 14 13 11 10 9 7 6 8 6 4 7 5 3 1 2 4 9 13 14 13 12 14 12 10 14 15 14 14 11 12 13 10 12 10 6 9 9 10 9 6 10 10 7 13 13 8 9 9 9 10 8 8 8 6 6 6 5 6 8 4 5 5 4 6 6 1 2 0 1 2 7 9 9 9 14 20 24 26 25 24
19 18 18 18 15 13 13 13 14 14 13 13 9 7 7 9 6 4 5 3 2 3 3 4 8 11 13 12 11 15 10 7 14 13 11 13 11 11 12 11 13 11 6 7 6 7 9 7 11 8 6 15 14 6 8 10 9 8 6 8 7 6 6 4 3 4 5 3 4 5 4 5 4 2 5 4 3 4 6 8 10 10 12 16 21 25 26 25
18 16 16 16 12 12 11 12 14 16 17 13 9 7 8 8 5 3 1 2 1 1 1 5 9 10 11 10 10 15 9 5 13 13 10 14 13 13 13 11 13 13 9 7 5 6 7 5 12 9 5 11 10 7 9 7 5 6 6 7 2 2 4 4 2 1 4 7 4 4 6 6 4 4 6 6 5 6 8 9 12 12 13 16 19 23 25 25
17 15 14 12 11 12 11 12 13 17 18 13 9 7 7 7 5 5 4 3 2 2 4 6 8 9 11 10 9 15 12 8 13 12 9 12 12 13 14 11 13 16 13 10 5 6 7 4 11 12 9 6 3 6 8 3 2 4 7 7 5 2 3 4 4 3 5 8 3 4 8 7 5 4 4 7 7 8 8 10 11 13 15 17 18 21 24 25
18 16 12 8 11 12 11 12 14 18 17 11 9 8 7 6 4 3 5 6 5 3 6 5 5 7 10 10 11 16 15 11 12 12 10 10 9 12 14 11 11 15 16 14 7 5 8 5 8 10 8 7 5 7 7 4 4 5 3 5 6 4 5 5 5 5 5 7 4 5 6 7 6 3 3 6 6 5 7 9 10 13 16 18 18 20 22 24
17 14 6 6 10 11 12 13 15 18 14 9 9 8 7 7 6 6 6 7 6 5 5 4 3 5 8 9 10 15 16 13 12 12 10 9 8 11 14 12 11 15 18 16 9 5 7 6 5 7 7 8 8 8 8 8 7 4 3 5 6 5 3 4 5 5 5 6 6 3 4 5 5 1 2 1 3 4 5 7 9 12 16 17 18 20 22 25
14 9 3 4 9 8 12 14 16 14 10 9 9 6 5 7 7 7 6 5 7 6 4 3 2 4 6 8 8 10 14 14 13 11 10 10 9 8 11 12 11 13 16 16 11 6 5 6 4 7 7 7 8 9 10 9 9 9 7 8 8 4 2 3 4 4 5 6 5 4 5 3 3 4 1 2 2 3 3 5 7 10 13 16 17 19 21 24
9 5 2 3 3 9 13 13 12 10 8 8 8 6 4 4 5 6 6 5 7 8 7 6 6 5 4 6 8 8 11 13 13 11 9 11 10 7 9 12 11 11 11 11 11 8 6 6 6 6 7 9 9 7 4 5 6 10 10 9 10 7 5 5 5 4 3 5 4 4 6 2 5 5 2 1 1 2 3 4 5 7 10 14 16 18 20 23
6 4 1 1 5 14 11 8 9 8 9 6 5 4 3 3 5 6 5 6 7 8 8 7 7 7 5 6 6 7 10 10 12 12 9 11 13 9 8 10 13 14 11 10 11 8 5 5 7 7 7 6 4 4 1 4 4 7 9 10 10 8 8 8 6 4 4 4 3 4 7 2 5 4 2 2 1 1 2 4 5 6 8 12 15 16 18 20
6 6 3 2 7 12 8 7 7 7 8 4 1 3 3 3 5 5 4 6 6 6 7 7 7 7 6 5 4 7 11 10 11 12 10 11 11 6 10 11 12 13 11 10 11 7 3 5 8 7 5 4 5 4 2 1 4 7 8 9 9 8 9 7 2 2 3 4 3 5 7 3 4 4 2 2 2 3 4 5 5 6 7 10 14 16 18 19
8 8 6 4 5 11 9 6 7 7 8 5 3 6 6 5 6 6 5 5 5 5 6 6 7 6 4 3 4 7 9 7 9 11 8 9 6 6 10 13 11 12 11 7 8 10 7 7 8 7 6 7 6 5 5 6 7 9 9 10 11 10 7 3 1 2 5 7 6 6 7 2 4 3 2 2 3 5 5 5 6 6 6 9 13 16 17 18
8 5 6 4 4 9 8 4 3 5 7 7 7 7 6 5 5 4 5 5 4 6 7 6 5 5 4 4 4 6 6 4 6 7 5 6 6 6 8 12 11 13 10 3 5 11 10 7 8 9 9 10 9 8 8 8 8 9 10 11 12 13 11 7 4 5 6 6 6 8 8 2 5 5 4 4 3 4 5 5 6 7 7 7 10 14 17 18
6 2 4 4 5 8 7 4 5 5 4 6 6 5 5 6 4 2 3 5 3 5 8 7 7 7 6 6 6 7 9 6 3 4 6 7 6 6 6 9 11 12 6 4 6 9 6 6 10 11 10 10 9 8 9 10 10 13 15 15 14 15 14 10 7 7 5 4 6 9 9 8 5 3 3 4 4 4 5 5 6 7 8 9 10 13 15 17
5 2 1 1 3 6 6 3 4 5 2 3 3 2 4 6 4 3 4 3 0 3 6 7 7 7 5 6 7 8 9 8 5 5 8 7 6 7 6 6 11 10 5 5 11 9 3 6 13 14 14 11 7 5 9 12 13 14 16 16 16 16 15 13 11 7 5 5 7 5 6 10 12 7 4 4 4 5 5 6 7 7 8 10 12 13 15 16
4 2 3 3 1 2 2 1 2 3 2 3 2 1 3 5 3 2 2 2 1 2 3 6 6 3 4 4 5 6 8 8 8 7 6 5 6 8 7 6 9 10 8 9 12 8 5 8 12 15 16 10 3 4 7 11 12 13 14 15 15 15 15 15 13 8 6 8 6 2 5 9 11 7 5 6 6 8 7 7 7 8 8 10 12 14 15 16
5 3 3 3 3 2 3 3 3 2 2 2 2 2 3 3 1 1 2 2 3 2 3 4 2 4 6 5 6 5 5 4 7 7 3 4 7 8 7 6 7 10 11 10 9 6 5 5 7 11 13 8 5 4 6 10 11 12 14 14 14 15 15 16 13 8 7 8 5 2 4 9 10 7 7 8 9 9 9 8 9 10 10 11 12 13 15 16
5 4 4 5 3 2 3 3 2 3 2 2 2 2 1 1 2 3 2 2 1 3 4 5 5 8 7 3 4 2 3 6 2 1 3 2 5 4 5 4 4 9 11 9 7 6 5 3 5 8 9 6 6 6 7 10 11 12 12 11 12 13 13 12 9 6 6 6 5 5 8 10 8 4 5 8 8 8 9 11 11 10 10 12 13 14 15 17
7 6 6 5 3 1 2 2 1 3 3 2 1 1 1 1 4 4 1 1 3 4 6 7 7 8 5 1 1 4 7 8 6 5 7 5 3 3 2 1 0 6 10 8 6 7 7 4 4 7 8 6 7 8 9 9 10 11 11 10 12 12 10 9 7 6 7 6 6 7 9 8 4 2 4 8 9 10 12 11 9 8 9 11 13 14 16 17
9 7 7 5 2 1 2 2 1 3 2 2 3 2 1 2 4 5 2 2 1 3 7 9 8 6 2 3 4 9 10 10 10 9 9 8 8 8 6 5 5 4 5 7 6 7 7 6 6 8 9 6 8 9 9 9 9 9 9 11 13 11 9 8 7 7 6 6 6 7 6 5 3 3 7 10 10 12 11 8 7 7 8 10 12 13 14 16
Wind_Direction
348 346 344 342 341 342 343 343 342 342 342 343 343 341 339 337 334 328 318 309 300 292 285 277 271 269 269 268 267 264 263 258 255 251 239 227 222 214 196 191 194 191 176 176 177 170 170 160 156 56 153 232 235 230 217 231 242 241 243 166 98 89 100 115 118 92 111 125 128 136 131 122 122 116 115 113 116 115 102 101 101 98 104 119 132 139 144 148
348 346 344 342 339 341 342 342 341 340 341 342 341 340 338 337 336 330 320 312 304 293 283 276 268 266 266 265 265 264 260 258 257 251 235 218 214 208 192 188 195 192 177 181 178 165 169 172 180 167 204 226 206 202 207 198 217 239 255 99 80 82 87 86 101 92 102 120 123 132 126 117 122 128 139 126 119 121 106 111 114 107 111 122 130 139 144 149
346 345 344 342 339 339 340 341 340 339 339 340 340 339 337 336 336 331 322 315 307 294 280 272 268 263 262 260 262 262 259 264 262 253 235 211 207 201 187 188 191 187 177 178 173 177 189 187 193 188 217 233 194 193 193 183 202 234 266 96 87 92 92 72 87 87 92 114 121 121 113 107 115 128 143 134 125 123 114 123 128 124 128 132 136 142 146 151
345 344 343 342 339 337 338 340 339 339 339 339 339 337 336 334 333 330 322 316 311 295 278 270 266 260 258 254 251 249 256 268 253 245 229 203 201 195 187 187 184 180 176 174 174 187 198 190 192 198 231 232 177 195 179 176 208 233 313 78 95 106 97 75 83 96 103 114 116 116 114 105 102 95 108 143 137 112 109 126 138 138 138 140 142 146 150 154
343 343 342 341 339 337 336 338 339 338 338 338 338 337 336 333 329 326 319 314 311 294 276 266 260 255 249 240 235 217 222 250 212 218 218 199 196 191 188 188 179 175 176 174 170 181 189 188 192 206 232 213 165 193 162 161 223 96 54 74 97 108 96 87 92 101 109 114 115 116 112 105 98 80 66 68 80 77 90 119 136 140 142 144 146 149 153 157
342 342 341 340 339 337 335 337 338 337 337 337 337 336 335 333 329 324 315 310 308 291 271 260 253 245 235 225 220 206 215 248 112 190 202 194 195 189 188 186 176 174 176 174 176 190 192 192 203 209 213 192 177 188 138 154 230 132 87 84 96 102 100 100 105 112 117 114 111 109 108 112 103 81 68 66 72 77 91 116 130 136 141 144 147 150 154 160
341 341 340 340 338 337 335 335 336 337 337 337 337 336 335 335 331 326 316 307 305 291 276 263 248 235 225 216 212 213 227 265 326 198 186 189 193 190 189 183 175 177 177 180 190 197 195 199 209 206 197 181 177 168 139 160 221 133 108 100 97 101 105 107 114 120 114 106 106 110 112 113 104 90 80 78 83 91 102 117 127 133 140 144 148 153 156 159
340 340 339 339 338 337 335 334 335 337 337 337 337 335 336 337 333 330 321 311 309 298 289 272 250 235 224 213 216 226 229 241 256 201 179 188 189 189 190 183 179 181 181 189 198 193 194 201 199 200 200 169 161 155 150 159 146 121 119 112 107 106 109 114 120 119 110 106 109 111 103 98 101 95 85 86 93 101 109 120 127 133 140 145 149 152 155 157
339 339 338 338 338 337 335 334 334 335 337 338 337 335 336 337 336 335 329 327 322 313 306 279 254 234 221 211 218 235 221 217 220 188 179 187 186 188 189 184 180 179 182 192 195 192 197 199 192 209 195 142 154 153 165 178 121 121 128 124 119 113 117 122 125 120 111 109 112 111 105 103 107 100 87 91 102 109 115 121 128 136 140 144 149 152 156 157
337 337 337 337 337 337 336 334 333 335 337 337 336 335 336 338 337 337 337 347 344 342 336 295 252 221 211 197 205 224 203 209 215 192 183 183 183 185 185 184 178 176 183 185 190 195 201 193 171 179 155 140 157 153 180 187 120 128 131 123 120 118 122 126 124 119 111 110 115 114 109 112 122 116 101 106 113 118 121 124 129 135 138 142 146 150 156 157
336 336 336 336 336 337 337 335 333 334 336 337 336 335 336 339 337 335 339 353 2 12 15 1 206 198 190 182 202 212 170 199 207 182 178 173 177 181 181 181 175 176 182 180 185 183 180 169 155 166 166 153 146 131 135 126 124 133 128 120 121 122 125 128 125 121 116 114 118 117 111 112 116 111 117 124 127 125 124 128 132 133 135 139 143 148 155 158
335 335 335 336 335 337 336 335 334 332 335 336 335 335 337 339 336 329 332 345 10 25 34 49 95 160 169 185 218 221 158 185 183 169 170 161 167 176 178 178 174 178 182 178 176 166 156 159 172 199 160 157 148 124 122 129 134 140 135 126 126 128 129 135 136 130 128 127 128 131 119 106 101 108 124 135 134 130 128 132 134 133 136 140 144 149 157 162
333 334 334 334 334 335 336 335 333 331 333 334 336 336 337 340 333 319 320 324 353 9 31 55 73 127 158 191 215 194 153 172 162 161 165 157 160 170 176 172 168 173 175 175 168 154 151 158 178 169 133 157 132 116 132 147 148 148 148 140 140 143 139 145 148 140 139 138 141 168 118 97 107 120 133 143 142 138 134 134 136 137 141 145 151 154 159 165
331 333 334 333 332 334 336 335 332 330 332 333 336 336 338 341 330 311 305 300 309 355 14 38 58 128 181 198 191 176 147 157 156 158 162 157 156 162 168 163 162 167 165 169 163 149 143 142 152 148 132 117 123 127 135 156 162 154 158 160 164 165 150 158 162 155 155 152 171 252 99 106 127 134 140 151 152 148 139 139 140 140 144 149 154 156 159 165
328 331 332 332 330 332 335 334 331 329 330 332 334 337 340 339 328 307 290 287 279 315 343 297 35 139 226 204 184 186 148 148 153 157 162 157 155 157 159 158 160 164 165 167 160 146 140 141 155 151 125 119 143 150 144 162 170 163 175 173 180 180 150 162 173 174 170 160 203 271 82 113 136 142 146 155 160 158 145 142 146 146 148 151 155 158 158 163
325 329 331 331 329 330 333 333 331 328 328 331 332 337 340 338 329 307 285 271 262 279 265 253 302 285 252 178 166 182 156 158 159 161 164 158 158 162 158 155 158 163 169 170 155 140 139 144 152 142 140 148 162 166 157 169 172 181 201 172 174 192 158 163 182 190 188 158 190 240 118 122 139 149 151 156 166 168 153 146 151 153 153 155 158 162 162 164
323 326 329 330 327 328 331 332 331 327 327 328 329 336 340 338 327 307 277 246 256 265 228 251 267 268 264 168 169 183 166 168 163 160 165 158 159 164 156 152 156 159 162 163 149 143 149 155 158 151 168 184 180 178 181 187 175 187 213 175 177 192 166 168 181 186 194 189 191 202 163 125 135 152 155 159 168 174 166 153 155 157 158 163 166 168 169 171
320 322 326 328 325 325 327 332 332 326 326 325 327 335 340 342 333 309 259 230 240 241 235 229 212 236 229 182 181 175 163 166 162 159 162 158 156 157 157 156 155 155 159 161 156 165 174 174 184 183 183 192 188 193 202 196 183 189 200 181 180 188 180 179 177 180 190 198 199 192 159 132 137 152 158 162 169 177 177 164 160 162 164 168 174 178 177 178
317 320 324 326 323 323 324 330 332 325 324 322 325 333 341 349 339 304 162 270 228 237 261 182 188 248 127 163 167 160 162 163 161 161 159 156 154 155 161 159 158 163 168 171 173 182 187 183 196 200 183 189 195 205 217 205 191 194 194 189 184 187 192 185 171 175 185 195 203 196 167 149 150 154 160 166 169 178 184 178 172 169 170 174 179 183 183 186
316 317 320 323 322 321 321 326 330 325 322 319 326 333 340 349 336 150 31 287 255 261 279 199 202 259 113 150 158 159 161 160 163 168 164 158 155 158 161 160 166 176 183 184 174 176 196 196 197 200 192 194 199 211 236 240 201 198 198 198 194 194 190 178 169 172 185 201 201 195 179 159 158 157 161 167 169 179 187 186 187 180 176 177 180 183 184 188
315 314 317 321 319 319 319 321 327 325 318 313 325 329 335 356 341 334 328 284 257 259 258 226 220 236 196 157 161 163 160 164 172 174 170 163 162 164 163 168 176 183 193 190 162 159 206 214 204 204 198 192 196 209 229 228 205 202 203 205 206 207 182 163 172 175 187 208 187 184 197 165 160 161 161 169 176 182 186 189 194 191 185 183 183 185 183 182
314 312 315 318 317 317 315 316 321 322 313 304 317 319 309 347 342 334 325 284 270 258 246 231 222 227 208 173 170 170 170 173 173 175 174 169 177 180 170 179 190 181 182 185 165 169 203 221 209 199 179 159 178 199 210 211 202 199 201 207 212 196 145 144 171 174 184 214 186 180 202 171 160 167 166 177 185 183 187 193 197 196 193 191 189 189 185 184
315 312 313 316 315 314 313 313 316 317 306 287 300 295 281 326 345 344 322 280 281 257 236 224 219 218 196 184 178 175 182 180 172 176 176 173 186 190 177 186 197 180 177 189 194 190 200 218 205 176 150 162 175 190 206 214 206 209 206 209 212 180 174 182 175 173 185 220 216 184 198 175 161 176 179 186 190 184 188 196 200 203 205 200 195 194 191 191
316 311 311 314 313 311 312 311 310 316 299 283 291 271 264 320 347 347 309 271 277 242 226 217 212 208 191 187 180 179 188 185 176 175 177 178 183 185 185 195 197 183 186 196 202 207 204 196 170 154 166 184 182 183 200 211 205 216 220 226 228 185 204 220 164 161 181 205 216 190 197 196 182 192 190 187 192 191 192 197 203 206 209 209 203 198 196 197
317 312 310 313 312 309 312 311 304 322 306 300 300 264 253 317 342 345 299 268 254 207 210 206 201 197 183 176 176 181 184 183 184 177 178 184 181 175 185 197 202 194 191 195 202 212 193 137 142 162 182 192 191 190 201 213 207 205 214 230 245 223 220 205 155 160 188 201 201 197 216 217 190 197 195 184 191 196 194 199 206 207 206 211 211 206 201 199
317 313 309 312 313 308 312 310 268 307 312 298 299 267 257 310 327 326 280 269 239 170 172 183 182 177 174 169 169 178 183 181 183 175 177 189 187 183 184 185 212 213 189 188 203 218 161 130 159 181 186 192 201 201 196 212 225 204 195 215 236 246 224 184 167 183 217 210 189 197 231 235 184 200 202 190 192 198 199 203 208 206 206 210 212 210 204 199
317 314 308 309 314 310 309 296 273 302 305 273 288 274 276 307 316 237 247 256 230 158 151 166 171 168 170 166 166 177 180 160 161 170 179 188 185 193 202 181 200 210 174 177 199 204 165 163 181 192 193 194 205 206 188 206 233 219 98 185 207 222 206 186 189 206 217 179 172 196 226 249 226 212 198 192 194 198 201 207 210 207 206 209 209 209 204 200
317 314 306 305 311 310 305 296 291 298 271 261 277 270 288 308 254 204 248 255 203 141 143 150 158 163 160 164 173 183 142 147 161 177 181 188 182 195 214 190 191 182 168 188 187 155 171 183 183 187 196 197 199 185 167 195 226 50 74 136 165 198 197 191 203 206 187 188 198 199 211 244 246 201 180 193 200 206 207 207 208 208 206 206 207 207 204 200
315 312 306 302 303 303 297 292 292 282 245 237 253 271 297 293 235 223 248 257 180 148 149 145 150 162 157 166 182 190 151 159 171 166 173 190 189 199 225 191 191 176 175 213 219 130 158 194 189 193 201 187 127 85 129 184 200 109 116 118 120 160 179 190 214 206 189 223 228 204 201 242 252 192 174 196 207 213 214 210 208 206 205 205 206 205 202 198
313 311 305 300 301 301 293 288 284 263 217 196 229 288 301 265 235 229 216 221 189 139 143 155 157 163 164 169 185 192 183 178 159 152 170 189 188 201 239 181 195 183 177 216 232 121 129 142 194 213 217 127 103 86 90 104 121 138 139 126 124 134 149 185 221 209 216 231 233 207 200 233 261 227 186 198 217 221 218 213 207 205 205 204 204 203 200 197
310 308 302 299 298 296 291 289 282 248 197 193 230 296 283 243 234 236 199 169 242 146 153 175 164 163 172 177 182 187 190 179 158 160 173 183 185 198 201 174 200 199 182 200 192 146 158 168 166 177 136 124 119 105 93 110 142 159 159 156 150 137 163 187 181 198 231 231 220 200 203 223 250 258 218 197 217 227 228 219 207 204 204 202 202 202 199 196
309 304 298 294 291 284 279 273 263 245 222 212 200 212 244 232 230 235 190 139 206 174 167 180 171 172 181 183 180 181 185 176 170 174 177 181 187 192 193 187 186 189 188 186 176 168 174 165 140 137 157 171 153 128 118 142 169 187 185 180 186 177 185 205 195 204 234 222 145 158 211 226 245 259 263 254 226 220 226 226 216 209 205 200 198 199 197 195
308 303 295 288 283 277 270 260 250 244 232 204 188 198 233 246 233 223 208 184 138 138 165 179 181 182 184 186 181 178 182 175 176 183 183 187 191 188 199 205 193 200 203 184 180 176 167 148 150 156 165 195 191 170 163 171 187 200 194 192 207 199 198 220 214 219 239 210 130 147 205 244 256 251 254 263 249 219 210 213 220 216 210 204 197 195 195 195
307 305 297 287 281 273 263 251 242 236 212 188 198 208 225 247 243 217 220 203 102 121 167 161 184 186 190 195 179 174 184 174 175 187 185 188 197 191 198 207 207 220 215 187 191 189 183 172 176 175 162 186 200 197 185 184 191 202 202 205 219 220 220 231 230 236 242 198 133 151 194 244 258 194 133 236 0 206 208 205 207 211 212 207 199 195 194 193
308 305 297 290 281 267 254 240 232 223 202 195 210 214 219 237 239 226 218 181 124 177 153 154 194 194 193 198 180 178 195 183 179 191 191 193 201 195 193 196 202 218 215 190 188 194 206 183 160 152 142 179 193 190 186 197 195 193 209 219 227 239 232 245 301 288 280 266 173 180 217 246 254 127 142 163 145 168 199 204 202 203 203 202 200 198 195 192
309 305 300 292 270 255 249 233 225 214 203 207 218 212 221 236 249 274 304 67 68 225 192 191 199 201 194 192 187 186 202 211 187 191 197 200 205 201 198 191 192 208 217 198 172 187 217 167 140 140 141 182 199 178 181 219 206 169 204 217 212 331 260 241 253 315 290 274 228 186 234 240 235 226 186 183 205 203 201 207 207 204 199 197 200 201 196 191
314 311 306 287 251 247 243 228 221 206 202 217 229 216 224 236 260 304 337 340 310 292 271 217 190 205 201 191 193 189 192 199 188 191 195 197 205 204 201 193 188 202 215 218 207 194 216 171 144 170 172 156 192 170 166 227 256 192 207 188 130 52 274 250 247 212 228 253 235 192 243 248 232 237 175 175 219 226 211 213 212 203 200 200 200 200 196 190
319 317 310 271 246 248 235 221 212 199 200 222 231 222 226 225 235 291 318 312 294 264 265 244 187 207 211 200 194 187 187 188 183 193 198 190 193 196 198 195 189 202 215 224 225 193 215 204 145 176 181 141 163 187 171 181 232 261 247 161 167 217 212 202 239 248 239 258 258 203 231 253 240 229 145 174 219 241 215 207 212 207 202 202 199 195 193 189
323 318 295 249 258 251 223 209 195 191 202 225 225 218 220 221 229 259 288 297 283 262 260 259 214 214 223 221 201 183 186 192 183 192 203 190 178 186 198 200 192 201 211 219 221 183 210 230 163 163 168 150 170 201 203 188 187 244 264 189 206 247 235 191 220 255 263 272 278 227 208 237 225 164 63 204 248 270 222 198 211 214 207 203 198 192 191 189
324 306 249 274 285 239 196 185 178 187 209 225 229 219 196 209 225 243 264 280 274 269 268 271 243 214 217 230 225 190 189 200 195 197 203 189 178 181 195 202 198 194 200 213 219 191 191 232 204 149 150 173 190 199 215 208 186 197 214 203 200 207 239 230 219 245 270 274 281 270 253 246 117 106 90 275 270 264 226 207 216 217 210 204 198 193 191 189
314 273 220 312 279 154 154 169 176 195 217 223 241 237 192 208 227 233 247 260 267 267 270 283 279 260 233 227 229 201 193 205 203 203 202 188 196 202 185 196 198 177 179 202 211 201 193 213 208 163 168 202 199 186 227 258 215 201 203 206 205 195 204 229 218 203 234 264 274 277 278 292 98 122 178 195 222 228 221 226 220 211 208 202 196 194 192 191
289 252 208 310 169 148 153 189 188 203 220 221 252 242 195 222 237 242 251 249 256 254 254 268 268 262 252 233 229 202 196 205 202 205 206 196 210 211 170 181 189 176 179 201 199 196 197 210 215 200 190 194 152 112 31 323 276 228 217 220 217 202 210 235 238 195 188 238 261 267 277 279 110 126 157 151 211 251 248 247 230 211 202 196 195 193 191 192
289 293 301 259 188 176 200 220 186 200 227 221 304 252 219 228 230 231 234 236 250 247 243 254 253 248 242 239 246 210 198 204 206 208 210 206 210 184 149 167 183 182 192 202 188 172 170 211 217 208 183 151 115 113 144 242 250 233 224 229 232 221 224 244 267 184 199 223 226 243 260 248 112 113 132 142 223 242 241 246 237 223 202 192 193 191 188 190
298 296 269 258 215 198 216 225 194 208 219 211 245 238 223 241 248 240 239 239 249 255 259 261 251 247 252 262 261 222 203 201 207 209 216 213 193 116 139 170 185 192 198 199 177 169 183 207 207 203 194 187 184 185 189 193 213 226 222 219 228 229 227 227 123 161 231 233 227 251 268 254 115 123 159 159 206 230 227 230 233 229 214 196 191 189 188 187
301 276 228 241 224 204 223 275 264 227 211 211 232 233 221 228 230 242 266 257 254 273 277 275 272 276 272 261 249 222 216 226 212 201 210 207 168 123 156 176 192 205 202 179 158 174 189 202 197 207 207 198 204 209 203 197 202 221 223 211 212 216 216 214 202 219 234 217 212 243 266 268 120 139 174 177 194 228 230 228 228 225 221 208 196 191 188 186
303 272 193 192 185 204 231 286 287 261 226 211 218 220 230 227 191 155 249 242 241 276 272 271 280 279 255 233 226 208 207 224 229 191 197 196 164 142 164 181 203 212 188 130 172 184 195 200 200 217 225 218 221 211 202 209 206 208 213 208 206 212 215 218 231 239 226 196 215 230 244 264 255 210 203 200 214 242 244 244 240 226 219 211 202 197 191 189
293 321 4 202 182 202 210 212 253 261 239 213 216 199 232 238 227 188 202 215 307 310 273 256 259 268 253 229 228 208 195 206 216 203 202 197 157 137 149 186 206 205 173 179 196 192 200 207 205 219 230 235 241 189 186 214 220 214 214 210 207 209 210 216 230 230 197 216 246 212 191 251 269 278 272 249 255 266 262 260 257 242 227 215 206 201 196 194
313 0 15 348 311 212 192 135 317 284 217 214 232 217 230 236 246 229 192 228 245 11 293 230 213 278 310 300 269 218 186 195 207 203 199 190 167 155 154 168 185 183 184 200 197 191 220 217 204 214 221 223 218 161 187 219 230 228 224 213 203 201 203 216 226 216 200 236 260 123 152 240 267 284 283 278 283 281 277 273 267 257 241 222 209 203 199 196
347 9 28 352 333 350 357 359 329 271 216 224 218 196 241 245 251 15 0 265 217 77 345 254 202 347 329 320 303 241 185 202 209 192 193 203 194 186 177 167 164 173 185 193 187 194 233 214 190 210 217 204 181 178 201 219 224 227 226 214 202 202 206 216 222 212 217 245 254 178 225 259 273 280 278 283 287 283 282 276 263 257 247 226 213 207 202 200
8 355 352 321 297 350 347 335 287 236 195 210 215 167 230 263 28 23 0 301 270 67 11 324 342 345 324 298 293 274 42 2 291 180 359 265 205 205 202 183 161 175 187 191 179 185 217 209 176 200 210 192 177 181 195 212 217 215 215 206 201 202 204 211 215 199 207 236 246 247 262 271 271 254 252 270 275 269 269 267 261 258 246 229 220 213 207 205
24 357 347 314 283 6 328 305 270 242 194 178 225 128 121 68 24 353 270 345 356 30 21 350 343 337 312 196 79 22 17 351 318 325 332 299 283 314 286 273 329 186 188 188 182 185 201 201 169 195 214 196 174 182 187 198 211 209 200 192 191 195 199 205 202 189 202 227 239 245 258 271 266 211 247 269 264 254 257 263 266 261 243 230 224 218 213 208
21 1 352 312 269 36 324 253 218 246 209 73 28 14 349 16 14 334 265 165 112 28 14 351 338 324 275 133 48 359 339 318 302 304 303 289 291 299 289 289 299 259 197 186 190 191 194 192 179 203 224 198 170 183 184 186 210 216 204 196 195 198 205 204 193 187 204 233 249 250 265 299 317 284 278 280 273 264 260 261 275 272 247 232 227 222 218 210